Dutzow, MO

8:16 AM CDT on July 29, 2016 (GMT -0500)
Washington

Weather History for KFYG - March, 2014

Change the Weather History Date:

Thursday, March 27, 2014

  Actual Average (KSTL) Record (KSTL)
Temperature  
Mean Temperature 49 °F 50 °F  
Max Temperature 59 °F 60 °F 87 °F (1910)
Min Temperature 39 °F 40 °F 15 °F (1955)
Degree Days  
Heating Degree Days 16 15  
Month to date heating degree days 530  
Since 1 July heating degree days 4128  
Cooling Degree Days 0 0  
Month to date cooling degree days 0  
Year to date cooling degree days 0  
Moisture  
Dew Point 45 °F    
Average Humidity 77    
Maximum Humidity 100    
Minimum Humidity 57    
Precipitation  
Precipitation 0.03 in 0.12 in 2.31 in (1890)
Month to date precipitation 2.81  
Year to date precipitation 7.45  
Snow  
Snow 0.00 in 0.10 in 6.50 in (1947)
Month to date snowfall 2.2  
Since 1 July snowfall 17.2  
Snow Depth -    
Sea Level Pressure  
Sea Level Pressure 29.71 in    
Wind  
Wind Speed 14 mph (South)    
Max Wind Speed 26 mph    
Max Gust Speed 36 mph    
Visibility 9 miles    
Events Rain , Thunderstorm    
T = Trace of Precipitation, MM = Missing Value Source: NWS Daily Summary

Daily Weather History Graph

Daily Weather History Graph

Search for Another Location

Airport or City:

Trip Planner

Search our weather history database for the weather conditions in past years. The results will help you decide how hot, cold, wet, or windy it might be!

Date:

Astronomy

Mar. 27, 2014 Rise Set
Actual Time 6:56 AM CDT 7:22 PM CDT
Civil Twilight 6:29 AM CDT 7:49 PM CDT
Nautical Twilight 5:58 AM CDT 8:20 PM CDT
Astronomical Twilight 5:26 AM CDT 8:52 PM CDT
Moon 4:45 AM CDT (3/27) 4:12 PM CDT (3/27)
Length of Visible Light 13h 19m
Length of Day
12h 26m
Waning Crescent, 13% of the Moon is Illuminated
Mar 27
Waning Crescent
Mar 30
New
Apr 7
First Quarter
Apr 15
Full
Apr 22
Last Quarter

Hourly Weather History & Observations

Time (CDT) Temp. Windchill Dew Point Humidity Pressure Visibility Wind Dir Wind Speed Gust Speed Precip Events Conditions
12:35 AM 41.0 °F 34.7 °F 33.8 °F 76% 29.95 in 5.0 mi SE 10.4 mph - N/A Rain Light Rain
12:55 AM 41.0 °F 34.7 °F 35.6 °F 81% 29.94 in 4.0 mi SE 10.4 mph - N/A Rain Light Rain
1:15 AM 41.0 °F 35.2 °F 37.4 °F 87% 29.94 in 5.0 mi SE 9.2 mph - N/A Rain Light Rain
1:35 AM 39.2 °F 32.0 °F 39.2 °F 100% 29.92 in 5.0 mi SE 11.5 mph - N/A Rain Light Rain
1:55 AM 39.2 °F 32.0 °F 39.2 °F 100% 29.90 in 5.0 mi SE 11.5 mph - N/A Rain Light Rain
2:15 AM 39.2 °F 32.0 °F 39.2 °F 100% 29.89 in 5.0 mi SE 11.5 mph - N/A Rain Light Rain
2:35 AM 41.0 °F 34.3 °F 41.0 °F 100% 29.87 in 8.0 mi SE 11.5 mph - N/A Rain Light Rain
2:55 AM 41.0 °F 33.5 °F 39.2 °F 93% 29.85 in 10.0 mi SE 13.8 mph 18.4 mph N/A   Overcast
3:15 AM 41.0 °F 34.3 °F 39.2 °F 93% 29.84 in 10.0 mi SE 11.5 mph - N/A   Overcast
3:35 AM 41.0 °F 34.3 °F 39.2 °F 93% 29.83 in 10.0 mi SE 11.5 mph - N/A   Overcast
3:55 AM 42.8 °F 37.0 °F 37.4 °F 81% 29.81 in 10.0 mi SE 10.4 mph - N/A   Overcast
4:15 AM 42.8 °F 37.5 °F 37.4 °F 81% 29.81 in 10.0 mi SE 9.2 mph - N/A   Mostly Cloudy
4:35 AM 44.6 °F 39.2 °F 35.6 °F 71% 29.80 in 10.0 mi SE 10.4 mph - N/A   Mostly Cloudy
4:55 AM 44.6 °F 39.2 °F 33.8 °F 66% 29.78 in 10.0 mi SE 10.4 mph - N/A   Overcast
5:15 AM 44.6 °F 39.2 °F 32.0 °F 61% 29.79 in 10.0 mi SSE 10.4 mph - N/A   Mostly Cloudy
5:35 AM 46.4 °F 41.5 °F 32.0 °F 57% 29.79 in 10.0 mi SSE 10.4 mph - N/A   Overcast
6:35 AM 48.2 °F - 35.6 °F 62% 29.78 in 9.0 mi SSE 12.7 mph 19.6 mph N/A Rain Light Rain
6:55 AM 48.2 °F - 35.6 °F 62% 29.77 in 6.0 mi SSE 16.1 mph - N/A Rain , Thunderstorm Light Rain
7:15 AM 46.4 °F 40.4 °F 37.4 °F 71% 29.77 in 8.0 mi SSE 13.8 mph - N/A Rain Light Rain
7:35 AM 48.2 °F - 37.4 °F 66% 29.77 in 10.0 mi South 19.6 mph - N/A   Overcast
8:15 AM 50.0 °F - 35.6 °F 58% 29.77 in 10.0 mi SSE 11.5 mph - N/A   Overcast
8:35 AM 50.0 °F - 37.4 °F 62% 29.77 in 10.0 mi SSE 13.8 mph - N/A   Overcast
8:55 AM 50.0 °F - 37.4 °F 62% 29.76 in 10.0 mi SSE 15.0 mph - N/A   Overcast
9:35 AM 51.8 °F - 39.2 °F 62% 29.75 in 10.0 mi SSE 11.5 mph 21.9 mph N/A   Overcast
9:55 AM 53.6 °F - 39.2 °F 58% 29.75 in 10.0 mi South 11.5 mph 23.0 mph N/A   Overcast
10:15 AM 53.6 °F - 41.0 °F 62% 29.75 in 10.0 mi South 16.1 mph 19.6 mph N/A   Overcast
10:35 AM 53.6 °F - 41.0 °F 62% 29.75 in 10.0 mi South 17.3 mph 24.2 mph N/A   Overcast
10:55 AM 53.6 °F - 41.0 °F 62% 29.73 in 10.0 mi South 18.4 mph 25.3 mph N/A   Overcast
11:15 AM 55.4 °F - 42.8 °F 63% 29.72 in 10.0 mi South 18.4 mph - N/A   Overcast
11:35 AM 55.4 °F - 44.6 °F 67% 29.71 in 10.0 mi South 19.6 mph 28.8 mph N/A   Overcast
11:55 AM 55.4 °F - 44.6 °F 67% 29.70 in 10.0 mi South 18.4 mph 25.3 mph N/A   Overcast
12:15 PM 57.2 °F - 44.6 °F 63% 29.69 in 10.0 mi South 24.2 mph 28.8 mph N/A   Overcast
12:35 PM 57.2 °F - 46.4 °F 67% 29.67 in 10.0 mi South 19.6 mph 33.4 mph N/A   Overcast
12:55 PM 57.2 °F - 46.4 °F 67% 29.66 in 10.0 mi South 26.5 mph 32.2 mph N/A   Overcast
1:15 PM 57.2 °F - 46.4 °F 67% 29.66 in 10.0 mi South 17.3 mph 32.2 mph N/A   Overcast
1:55 PM 57.2 °F - 46.4 °F 67% 29.63 in 10.0 mi South 18.4 mph 23.0 mph N/A   Overcast
2:15 PM 57.2 °F - 46.4 °F 67% 29.62 in 10.0 mi South 18.4 mph 32.2 mph N/A   Overcast
2:55 PM 57.2 °F - 48.2 °F 72% 29.61 in 10.0 mi SSE 13.8 mph 24.2 mph N/A   Overcast
3:15 PM 55.4 °F - 48.2 °F 77% 29.61 in 10.0 mi SSE 16.1 mph 23.0 mph N/A   Overcast
3:35 PM 57.2 °F - 48.2 °F 72% 29.60 in 10.0 mi South 18.4 mph 23.0 mph N/A   Overcast
4:15 PM 57.2 °F - 48.2 °F 72% 29.58 in 10.0 mi South 20.7 mph 28.8 mph N/A   Overcast
4:35 PM 57.2 °F - 48.2 °F 72% 29.56 in 10.0 mi South 19.6 mph 23.0 mph N/A   Overcast
4:55 PM 57.2 °F - 50.0 °F 77% 29.58 in 10.0 mi South 17.3 mph 27.6 mph N/A   Overcast
5:15 PM 57.2 °F - 50.0 °F 77% 29.57 in 10.0 mi South 23.0 mph 26.5 mph N/A   Overcast
5:35 PM 57.2 °F - 50.0 °F 77% 29.56 in 10.0 mi South 20.7 mph 27.6 mph N/A   Overcast
5:55 PM 57.2 °F - 51.8 °F 82% 29.55 in 10.0 mi South 18.4 mph 29.9 mph N/A   Overcast
6:15 PM 59.0 °F - 51.8 °F 77% 29.55 in 10.0 mi South 19.6 mph 35.7 mph N/A   Overcast
6:35 PM 59.0 °F - 51.8 °F 77% 29.56 in 10.0 mi South 13.8 mph 24.2 mph N/A   Overcast
6:55 PM 59.0 °F - 51.8 °F 77% 29.56 in 10.0 mi South 18.4 mph 25.3 mph N/A   Mostly Cloudy
7:55 PM 59.0 °F - 53.6 °F 82% 29.55 in 10.0 mi South 15.0 mph 23.0 mph N/A   Mostly Cloudy
8:15 PM 59.0 °F - 53.6 °F 82% 29.56 in 10.0 mi South 13.8 mph 23.0 mph N/A   Scattered Clouds
8:35 PM 59.0 °F - 53.6 °F 82% 29.57 in 10.0 mi South 19.6 mph 23.0 mph N/A   Mostly Cloudy
8:55 PM 59.0 °F - 53.6 °F 82% 29.60 in 10.0 mi SSW 13.8 mph 21.9 mph N/A Thunderstorm Mostly Cloudy
9:15 PM 59.0 °F - 57.2 °F 94% 29.64 in 4.0 mi SSW 16.1 mph 21.9 mph 0.01 in Rain , Thunderstorm Light Thunderstorms and Rain
9:35 PM 57.2 °F - 57.2 °F 100% 29.58 in 3.0 mi South 24.2 mph 34.5 mph 0.03 in Rain Light Rain
9:55 PM 57.2 °F - 57.2 °F 100% 29.61 in 8.0 mi SSW 17.3 mph 23.0 mph 0.03 in Rain Light Rain
10:15 PM 59.0 °F - 57.2 °F 94% 29.63 in 10.0 mi SW 12.7 mph - N/A   Mostly Cloudy
10:35 PM 57.2 °F - 57.2 °F 100% 29.64 in 10.0 mi SW 11.5 mph - N/A   Overcast
10:55 PM 57.2 °F - 57.2 °F 100% 29.66 in 10.0 mi WSW 5.8 mph - N/A   Overcast
11:15 PM 57.2 °F - 57.2 °F 100% 29.66 in 10.0 mi West 6.9 mph - N/A   Overcast
11:35 PM 57.2 °F - 46.4 °F 67% 29.67 in 10.0 mi NW 10.4 mph 18.4 mph N/A   Overcast
11:55 PM 55.4 °F - 46.4 °F 72% 29.69 in 10.0 mi NW 12.7 mph 18.4 mph N/A   Mostly Cloudy